Location: Unspecified
(0.0000°N, 0.0000°E)
Time: 07:23:27
(UTC+02:00)

Cosmos 1908 Rocket - Visible Passes

Search period start: 27 July 2016 00:00
Search period end: 06 August 2016 00:00
Orbit: 607 x 632 km, 82.5° (Epoch: 26 July)

Date Brightness Start Highest point End Pass type
(mag) Time Alt. Az. Time Alt. Az. Time Alt. Az.
28 Jul 6.6 22:47:51 12° NW 22:47:51 12° NW 22:48:15 10° NW visible
29 Jul 5.0 21:26:41 21° NE 21:26:41 21° NE 21:28:34 10° NNE visible
30 Jul 3.4 21:42:08 72° E 21:42:11 72° E 21:46:33 10° N visible
31 Jul 4.5 21:56:37 18° SSW 21:59:39 46° W 22:03:51 10° NNW visible
01 Aug 5.2 20:37:04 10° SE 20:39:31 15° E 20:41:59 10° ENE visible
01 Aug 6.0 22:13:52 10° SW 22:17:06 20° W 22:20:22 10° NW visible
02 Aug 4.2 20:53:03 10° SSE 20:56:59 33° E 21:00:56 10° NNE visible
03 Aug 3.4 21:10:04 10° S 21:14:27 80° E 21:18:50 10° N visible
04 Aug 4.8 21:27:45 10° SSW 21:31:54 42° W 21:36:04 10° NNW visible
05 Aug 6.3 21:46:17 10° SW 21:49:22 19° W 21:52:27 10° NW visible
